{"data":{"norad_id":82043,"intl_designator":"","name":"UNKNOWN","alt_names":[],"object_type":"UNKNOWN","status":"UNKNOWN","operator":null,"country":null,"launch_date":null,"launch_site_code":null,"launch_vehicle":null,"mission":null,"orbit_class":"UNKNOWN","rcs_meters":null,"size_class":null,"mass_kg":null,"dimensions":null,"purposes":[],"wikipedia_slug":null,"has_3d_model":false,"image_url":null,"decayed_at":null,"tle_current":{"epoch":"2026-05-23T20:21:21.011040Z","epoch_age_seconds":178520,"freshness":"STALE","line1":"1 82043U          26143.84815985  .00000784  00000+0  22570-3 0  9998","line2":"2 82043  97.9512 284.2474 0227626 315.8569  42.4645 14.33448221597069","mean_motion":14.33448221,"eccentricity":0.0227626,"inclination_deg":97.9512,"raan_deg":284.2474,"arg_perigee_deg":315.8569,"mean_anomaly_deg":42.4645,"bstar":0.0002257,"rev_number":59706,"period_min":100.45706422485,"perigee_km":617.28493121666,"apogee_km":943.1709262707,"semimajor_km":7158.3649287437,"source":"CELESTRAK","updated_at":"2026-05-25T13:38:11.090265Z"}}}